Time,TemperatureF,DewpointF,PressureIn,WindDirection,WindDirectionDegrees,WindSpeedMPH,WindSpeedGustMPH,Humidity,HourlyPrecipIn,Conditions,Clouds,dailyrainin,SolarRadiationWatts/m^2,SoftwareType,DateUTC
2013-03-22 00:03:00,64.0,63.0,-100.00,SW,215,0.0,0.0,96,0.03,,,0.03,0.000000,,2013-03-22 10:03:00,
2013-03-22 00:12:00,64.0,63.0,-100.00,SW,215,0.0,0.0,96,0.03,,,0.03,0.000000,,2013-03-22 10:12:00,
2013-03-22 00:22:00,64.0,63.0,-100.00,SW,215,0.0,0.0,96,0.03,,,0.03,0.000000,,2013-03-22 10:22:00,
2013-03-22 00:32:00,64.0,63.0,-100.00,SW,215,0.0,0.0,96,0.03,,,0.03,0.000000,,2013-03-22 10:32:00,
2013-03-22 01:02:00,65.0,64.0,-100.00,West,262,0.0,0.0,97,0.00,,,0.03,0.000000,,2013-03-22 11:02:00,
2013-03-22 01:12:00,65.0,64.0,-100.00,West,262,0.0,0.0,97,0.00,,,0.03,0.000000,,2013-03-22 11:12:00,
2013-03-22 01:22:00,65.0,64.0,-100.00,West,262,0.0,0.0,97,0.00,,,0.03,0.000000,,2013-03-22 11:22:00,
2013-03-22 01:32:00,65.0,64.0,-100.00,West,262,0.0,0.0,97,0.00,,,0.03,0.000000,,2013-03-22 11:32:00,
2013-03-22 02:02:00,64.0,63.0,-100.00,WSW,239,0.0,0.0,98,0.00,,,0.03,0.000000,,2013-03-22 12:02:00,
2013-03-22 02:12:00,64.0,63.0,-100.00,WSW,239,0.0,0.0,98,0.00,,,0.03,0.000000,,2013-03-22 12:12:00,
2013-03-22 02:22:00,64.0,63.0,-100.00,WSW,239,0.0,0.0,98,0.00,,,0.03,0.000000,,2013-03-22 12:22:00,
2013-03-22 02:32:00,64.0,63.0,-100.00,WSW,239,0.0,0.0,98,0.00,,,0.03,0.000000,,2013-03-22 12:32:00,
2013-03-22 03:02:00,64.0,63.0,-100.00,SSW,200,0.0,0.0,98,0.00,,,0.03,0.000000,,2013-03-22 13:02:00,
2013-03-22 03:12:00,64.0,63.0,-100.00,SSW,200,0.0,0.0,98,0.00,,,0.03,0.000000,,2013-03-22 13:12:00,
2013-03-22 03:22:00,64.0,63.0,-100.00,SSW,200,0.0,0.0,98,0.00,,,0.03,0.000000,,2013-03-22 13:22:00,
2013-03-22 03:32:00,64.0,63.0,-100.00,SSW,200,0.0,0.0,98,0.00,,,0.03,0.000000,,2013-03-22 13:32:00,
2013-03-22 04:02:00,64.0,63.0,-100.00,WSW,255,0.0,0.0,98,0.00,,,-99.99,0.000000,,2013-03-22 14:02:00,
2013-03-22 04:12:00,64.0,63.0,-100.00,WSW,255,0.0,0.0,98,0.00,,,-99.99,0.000000,,2013-03-22 14:12:00,
2013-03-22 04:21:00,64.0,63.0,-100.00,WSW,255,0.0,0.0,98,0.00,,,-99.99,0.000000,,2013-03-22 14:21:00,
2013-03-22 04:31:00,64.0,63.0,-100.00,WSW,255,0.0,0.0,98,0.00,,,-99.99,0.000000,,2013-03-22 14:31:00,
2013-03-22 05:02:00,64.0,63.0,-100.00,West,267,0.0,0.0,98,0.00,,,0.03,0.000000,,2013-03-22 15:02:00,
2013-03-22 05:12:00,64.0,63.0,-100.00,West,267,0.0,0.0,98,0.00,,,0.03,0.000000,,2013-03-22 15:12:00,
2013-03-22 05:22:00,64.0,63.0,-100.00,West,267,0.0,0.0,98,0.00,,,0.03,0.000000,,2013-03-22 15:22:00,
2013-03-22 05:32:00,64.0,63.0,-100.00,West,267,0.0,0.0,98,0.00,,,0.03,0.000000,,2013-03-22 15:32:00,
2013-03-22 06:02:00,63.0,62.0,-100.00,WSW,246,0.0,0.0,98,0.00,,,-99.99,0.000000,,2013-03-22 16:02:00,
2013-03-22 06:13:00,63.0,62.0,-100.00,WSW,246,0.0,0.0,98,0.00,,,-99.99,0.000000,,2013-03-22 16:13:00,
2013-03-22 06:22:00,63.0,62.0,-100.00,WSW,246,0.0,0.0,98,0.00,,,-99.99,0.000000,,2013-03-22 16:22:00,
2013-03-22 06:32:00,63.0,62.0,-100.00,WSW,246,0.0,0.0,98,0.00,,,-99.99,0.000000,,2013-03-22 16:32:00,
2013-03-22 07:03:00,64.0,64.0,-100.00,West,270,0.0,0.0,99,0.02,,,0.05,0.000000,,2013-03-22 17:03:00,
2013-03-22 07:12:00,64.0,64.0,-100.00,West,270,0.0,0.0,99,0.02,,,0.05,0.000000,,2013-03-22 17:12:00,
2013-03-22 07:22:00,64.0,64.0,-100.00,West,270,0.0,0.0,99,0.02,,,0.05,0.000000,,2013-03-22 17:22:00,
2013-03-22 07:32:00,64.0,64.0,-100.00,West,270,0.0,0.0,99,0.02,,,0.05,0.000000,,2013-03-22 17:32:00,
2013-03-22 08:02:00,63.0,63.0,-100.00,West,263,0.0,0.0,99,0.00,,,0.05,0.000000,,2013-03-22 18:02:00,
2013-03-22 08:12:00,63.0,63.0,-100.00,West,263,0.0,0.0,99,0.00,,,0.05,0.000000,,2013-03-22 18:12:00,
2013-03-22 08:22:00,63.0,63.0,-100.00,West,263,0.0,0.0,99,0.00,,,0.05,0.000000,,2013-03-22 18:22:00,
2013-03-22 08:32:00,63.0,63.0,-100.00,West,263,0.0,0.0,99,0.00,,,0.05,0.000000,,2013-03-22 18:32:00,
2013-03-22 09:02:00,63.0,63.0,-100.00,West,260,0.0,0.0,99,0.00,,,0.05,0.000000,,2013-03-22 19:02:00,
2013-03-22 09:12:00,63.0,63.0,-100.00,West,260,0.0,0.0,99,0.00,,,0.05,0.000000,,2013-03-22 19:12:00,
2013-03-22 09:22:00,63.0,63.0,-100.00,West,260,0.0,0.0,99,0.00,,,0.05,0.000000,,2013-03-22 19:22:00,
2013-03-22 09:32:00,63.0,63.0,-100.00,West,260,0.0,0.0,99,0.00,,,0.05,0.000000,,2013-03-22 19:32:00,
2013-03-22 10:02:00,64.0,64.0,-100.00,WSW,251,0.0,0.0,99,0.15,,,0.20,0.000000,,2013-03-22 20:02:00,
2013-03-22 10:12:00,64.0,64.0,-100.00,WSW,251,0.0,0.0,99,0.15,,,0.20,0.000000,,2013-03-22 20:12:00,
2013-03-22 10:22:00,64.0,64.0,-100.00,WSW,251,0.0,0.0,99,0.15,,,0.20,0.000000,,2013-03-22 20:22:00,
2013-03-22 10:32:00,64.0,64.0,-100.00,WSW,251,0.0,0.0,99,0.15,,,0.20,0.000000,,2013-03-22 20:32:00,
2013-03-22 11:02:00,65.0,64.0,-100.00,SSW,201,0.0,0.0,98,0.01,,,0.21,0.000000,,2013-03-22 21:02:00,
2013-03-22 11:12:00,65.0,64.0,-100.00,SSW,201,0.0,0.0,98,0.01,,,0.21,0.000000,,2013-03-22 21:12:00,
2013-03-22 11:22:00,65.0,64.0,-100.00,SSW,201,0.0,0.0,98,0.01,,,0.21,0.000000,,2013-03-22 21:22:00,
2013-03-22 11:32:00,65.0,64.0,-100.00,SSW,201,0.0,0.0,98,0.01,,,0.21,0.000000,,2013-03-22 21:32:00,
2013-03-22 12:02:00,67.0,63.0,-100.00,SSW,194,0.0,0.0,88,0.00,,,0.21,0.000000,,2013-03-22 22:02:00,
2013-03-22 12:12:00,67.0,63.0,-100.00,SSW,194,0.0,0.0,88,0.00,,,0.21,0.000000,,2013-03-22 22:12:00,
2013-03-22 12:22:00,67.0,63.0,-100.00,SSW,194,0.0,0.0,88,0.00,,,0.21,0.000000,,2013-03-22 22:22:00,
2013-03-22 12:32:00,67.0,63.0,-100.00,SSW,194,0.0,0.0,88,0.00,,,0.21,0.000000,,2013-03-22 22:32:00,
2013-03-22 13:02:00,66.0,61.0,-100.00,South,188,0.0,0.0,83,0.00,,,0.21,0.000000,,2013-03-22 23:02:00,
2013-03-22 13:12:00,66.0,61.0,-100.00,South,188,0.0,0.0,83,0.00,,,0.21,0.000000,,2013-03-22 23:12:00,
2013-03-22 13:22:00,66.0,61.0,-100.00,South,188,0.0,0.0,83,0.00,,,0.21,0.000000,,2013-03-22 23:22:00,
2013-03-22 13:32:00,66.0,61.0,-100.00,South,188,0.0,0.0,83,0.00,,,0.21,0.000000,,2013-03-22 23:32:00,
2013-03-22 14:02:00,65.0,64.0,-100.00,SSW,211,0.0,0.0,95,0.12,,,0.33,0.000000,,2013-03-23 00:02:00,
2013-03-22 14:12:00,65.0,64.0,-100.00,SSW,211,0.0,0.0,95,0.12,,,0.33,0.000000,,2013-03-23 00:12:00,
2013-03-22 14:22:00,65.0,64.0,-100.00,SSW,211,0.0,0.0,95,0.12,,,0.33,0.000000,,2013-03-23 00:22:00,
2013-03-22 14:32:00,65.0,64.0,-100.00,SSW,211,0.0,0.0,95,0.12,,,0.33,0.000000,,2013-03-23 00:32:00,
2013-03-22 15:03:00,66.0,65.0,-100.00,WSW,244,0.0,0.0,97,0.01,,,0.34,0.000000,,2013-03-23 01:03:00,
2013-03-22 15:12:00,66.0,65.0,-100.00,WSW,244,0.0,0.0,97,0.01,,,0.34,0.000000,,2013-03-23 01:12:00,
2013-03-22 15:22:00,66.0,65.0,-100.00,WSW,244,0.0,0.0,97,0.01,,,0.34,0.000000,,2013-03-23 01:22:00,
2013-03-22 15:31:00,66.0,65.0,-100.00,WSW,244,0.0,0.0,97,0.01,,,0.34,0.000000,,2013-03-23 01:31:00,
2013-03-22 16:02:00,66.0,64.0,-100.00,SW,228,0.0,0.0,92,0.00,,,0.34,0.000000,,2013-03-23 02:02:00,
2013-03-22 16:12:00,66.0,64.0,-100.00,SW,228,0.0,0.0,92,0.00,,,0.34,0.000000,,2013-03-23 02:12:00,
2013-03-22 16:22:00,66.0,64.0,-100.00,SW,228,0.0,0.0,92,0.00,,,0.34,0.000000,,2013-03-23 02:22:00,
2013-03-22 16:31:00,66.0,64.0,-100.00,SW,228,0.0,0.0,92,0.00,,,0.34,0.000000,,2013-03-23 02:31:00,
2013-03-22 17:02:00,64.0,63.0,-100.00,SW,216,0.0,0.0,95,0.00,,,0.34,0.000000,,2013-03-23 03:02:00,
2013-03-22 17:12:00,64.0,63.0,-100.00,SW,216,0.0,0.0,95,0.00,,,0.34,0.000000,,2013-03-23 03:12:00,
2013-03-22 17:22:00,64.0,63.0,-100.00,SW,216,0.0,0.0,95,0.00,,,0.34,0.000000,,2013-03-23 03:22:00,
2013-03-22 17:32:00,64.0,63.0,-100.00,SW,216,0.0,0.0,95,0.00,,,0.34,0.000000,,2013-03-23 03:32:00,
2013-03-22 18:02:00,63.0,62.0,-100.00,West,262,0.0,0.0,97,0.00,,,0.34,0.000000,,2013-03-23 04:02:00,
2013-03-22 18:12:00,63.0,62.0,-100.00,West,262,0.0,0.0,97,0.00,,,0.34,0.000000,,2013-03-23 04:12:00,
2013-03-22 18:23:00,63.0,62.0,-100.00,West,262,0.0,0.0,97,0.00,,,0.34,0.000000,,2013-03-23 04:23:00,
2013-03-22 18:32:00,63.0,62.0,-100.00,West,262,0.0,0.0,97,0.00,,,0.34,0.000000,,2013-03-23 04:32:00,
2013-03-22 19:02:00,63.0,62.0,-100.00,SSW,205,0.0,0.0,97,0.00,,,0.34,0.000000,,2013-03-23 05:02:00,
2013-03-22 19:12:00,63.0,62.0,-100.00,SSW,205,0.0,0.0,97,0.00,,,0.34,0.000000,,2013-03-23 05:12:00,
2013-03-22 19:22:00,63.0,62.0,-100.00,SSW,205,0.0,0.0,97,0.00,,,0.34,0.000000,,2013-03-23 05:22:00,
2013-03-22 19:32:00,63.0,62.0,-100.00,SSW,205,0.0,0.0,97,0.00,,,0.34,0.000000,,2013-03-23 05:32:00,
2013-03-22 20:02:00,62.0,61.0,-100.00,SW,232,0.0,0.0,98,0.00,,,0.34,0.000000,,2013-03-23 06:02:00,
2013-03-22 20:12:00,62.0,61.0,-100.00,SW,232,0.0,0.0,98,0.00,,,0.34,0.000000,,2013-03-23 06:12:00,
2013-03-22 20:22:00,62.0,61.0,-100.00,SW,232,0.0,0.0,98,0.00,,,0.34,0.000000,,2013-03-23 06:22:00,
2013-03-22 20:31:00,62.0,61.0,-100.00,SW,232,0.0,0.0,98,0.00,,,0.34,0.000000,,2013-03-23 06:31:00,
2013-03-22 21:02:00,63.0,62.0,-100.00,South,189,0.0,0.0,97,0.00,,,0.34,0.000000,,2013-03-23 07:02:00,
2013-03-22 21:12:00,63.0,62.0,-100.00,South,189,0.0,0.0,97,0.00,,,0.34,0.000000,,2013-03-23 07:12:00,
2013-03-22 21:22:00,63.0,62.0,-100.00,South,189,0.0,0.0,97,0.00,,,0.34,0.000000,,2013-03-23 07:22:00,
2013-03-22 21:32:00,63.0,62.0,-100.00,South,189,0.0,0.0,97,0.00,,,0.34,0.000000,,2013-03-23 07:32:00,
2013-03-22 22:02:00,62.0,61.0,-100.00,SSE,165,0.0,0.0,98,0.00,,,0.34,0.000000,,2013-03-23 08:02:00,
2013-03-22 22:12:00,62.0,61.0,-100.00,SSE,165,0.0,0.0,98,0.00,,,0.34,0.000000,,2013-03-23 08:12:00,
2013-03-22 22:22:00,62.0,61.0,-100.00,SSE,165,0.0,0.0,98,0.00,,,0.34,0.000000,,2013-03-23 08:22:00,
2013-03-22 22:31:00,62.0,61.0,-100.00,SSE,165,0.0,0.0,98,0.00,,,0.34,0.000000,,2013-03-23 08:31:00,
2013-03-22 23:02:00,62.0,61.0,-100.00,NNE,21,0.0,0.0,98,0.00,,,0.34,0.000000,,2013-03-23 09:02:00,
2013-03-22 23:12:00,62.0,61.0,-100.00,NNE,21,0.0,0.0,98,0.00,,,0.34,0.000000,,2013-03-23 09:12:00,
2013-03-22 23:22:00,62.0,61.0,-100.00,NNE,21,0.0,0.0,98,0.00,,,0.34,0.000000,,2013-03-23 09:22:00,
2013-03-22 23:32:00,62.0,61.0,-100.00,NNE,21,0.0,0.0,98,0.00,,,0.34,0.000000,,2013-03-23 09:32:00,